Volver al catálogo

STARLINK-4477

ActivoComunicacionesVLEO
NORAD 53546·PAYLOAD·🇺🇸 United States

Lanzado Aug 19, 2022 desde Cape Canaveral Space Force Station

Loading…

Próximos Pases (próximas 24 horas)

TLE

ActualizadoSource: CelesTrak SupGP

Época: Sep 14, 2026, 13:40 UTC

1 53546C 22101V   26257.56993056  .00004788  00000+0  14148-3 0  2578
2 53546  53.1570 271.1050 0001265  74.3034 357.9586 15.34385081    19

Sigue STARLINK-4477 en tiempo real con AllMySat

Download on the App Store